Wind_Speed
6 6 11 16 15 7 5 10 16 14 17 15 14 15 15 15 15 17 15 13 12 13 13 24 30 34 33 34 34 34 33 36 36 33 33 31 33 33 31 30 30 29 29 30
6 15 22 9 9 14 13 14 17 14 10 11 11 18 13 17 19 17 15 16 17 16 17 19 17 31 34 36 38 34 37 36 40 36 34 33 31 31 31 32 30 31 32 31
15 14 12 14 14 13 13 16 15 13 10 14 15 21 17 23 20 19 20 17 17 18 15 16 19 24 30 34 36 39 40 38 40 39 32 29 27 26 29 32 34 36 36 35
13 20 17 11 18 14 17 15 12 10 4 7 3 9 14 12 15 19 23 22 23 20 17 17 17 24 30 35 39 41 39 39 41 40 36 37 34 32 35 34 34 38 39 38
12 11 13 16 20 11 19 6 14 11 11 7 19 9 15 5 14 16 11 12 21 20 19 22 19 27 26 34 38 38 39 39 40 40 41 38 35 36 32 30 33 35 38 42
16 8 7 16 13 13 4 2 3 3 4 9 19 13 15 15 20 18 14 15 10 14 16 18 23 25 27 31 36 36 38 40 40 40 42 40 39 35 31 33 33 35 38 42
19 18 10 8 8 9 15 5 3 4 4 8 21 11 21 15 13 12 10 13 12 11 12 9 11 13 22 25 31 36 38 38 40 42 41 44 40 39 38 35 36 32 34 35
12 9 21 14 13 8 8 12 7 5 7 6 8 7 12 17 19 25 20 13 10 9 7 8 8 11 20 26 24 33 35 37 39 41 43 43 43 40 40 38 36 36 35 40
11 15 5 13 15 11 8 10 13 14 11 5 3 6 10 12 9 7 8 7 10 10 8 9 8 13 18 18 25 27 33 37 38 40 42 42 42 44 40 40 40 38 38 35
3 4 10 10 14 15 18 8 4 5 8 9 8 7 9 6 7 7 9 11 11 9 8 8 8 11 19 23 25 30 31 33 37 38 39 41 43 42 43 38 40 40 39 39
3 2 1 3 11 15 11 15 13 4 3 2 3 5 5 10 8 5 6 8 8 6 2 6 6 8 8 12 16 21 28 32 30 34 37 37 39 42 40 42 40 42 40 39
15 1 6 11 7 5 13 15 19 10 18 7 6 13 8 17 23 12 9 5 2 2 5 5 6 8 9 10 13 17 22 23 33 34 34 36 35 36 38 39 41 39 40 40
12 5 2 1 4 7 6 11 11 13 15 18 13 12 3 8 12 12 12 7 2 4 6 6 5 6 8 9 12 16 20 25 28 30 33 33 33 34 37 40 40 39 39 39
14 4 10 12 3 6 8 15 12 12 10 17 12 26 34 23 22 20 16 14 13 8 7 7 7 8 14 15 15 16 20 19 24 28 30 32 33 34 36 36 37 38 39 38
6 6 11 14 11 10 14 7 10 11 15 14 22 20 31 17 9 15 19 24 23 22 15 8 8 8 11 17 19 19 22 22 23 26 31 34 39 37 36 36 37 38 39 39
3 1 2 4 4 9 13 14 14 12 13 9 16 20 31 22 16 16 17 21 21 19 19 18 17 14 10 15 21 25 27 27 24 27 33 35 33 35 39 39 39 39 40 42
9 4 4 3 3 4 8 18 16 16 18 16 18 26 29 24 8 12 15 12 12 14 14 16 18 16 18 24 28 27 29 31 26 29 34 34 33 35 37 40 40 40 41 41
6 5 3 3 3 3 8 3 7 12 15 14 20 22 26 19 17 15 15 14 17 19 21 21 20 27 30 30 31 31 29 29 28 29 31 31 33 37 37 37 40 40 40 42
5 4 1 3 4 8 11 8 8 8 17 6 7 13 13 19 15 2 17 17 15 16 17 21 29 34 37 39 34 33 30 28 30 31 29 32 35 37 35 35 37 39 39 40
2 4 4 2 4 8 4 5 8 5 9 10 13 13 16 17 8 6 26 23 23 24 27 31 39 37 34 37 43 35 29 28 29 29 35 36 35 36 37 37 37 37 39 39
3 1 6 4 5 6 3 6 7 4 5 12 13 13 15 9 7 17 20 23 25 28 32 36 35 32 32 36 37 33 31 27 34 36 35 34 34 38 38 34 36 38 37 36
7 7 4 3 3 7 9 3 2 4 7 12 13 14 15 14 16 17 15 18 21 22 31 32 33 34 36 33 32 30 28 33 35 33 34 34 34 35 32 31 34 34 35 32
4 6 4 8 5 7 11 13 10 9 8 11 13 15 16 18 17 18 18 17 17 26 31 34 30 33 32 30 30 29 30 34 36 36 35 34 31 30 30 29 28 27 30 25
3 4 2 3 4 6 10 11 11 11 11 12 12 15 17 19 19 20 18 17 16 24 29 33 33 30 32 31 32 28 30 32 30 28 32 29 23 22 22 27 30 26 24 21
2 4 2 4 4 5 8 12 15 15 12 15 16 16 17 18 20 19 19 18 22 26 28 31 31 29 31 32 31 28 33 31 26 23 21 18 16 17 17 20 22 26 28 32
2 2 3 2 5 1 6 14 17 15 17 17 19 20 19 19 19 20 17 23 24 24 27 27 28 28 30 30 30 29 32 30 24 19 14 12 12 14 15 16 15 21 20 25
Wind_Direction
203 220 211 214 213 230 266 255 254 244 235 246 249 263 260 268 255 248 252 256 245 259 259 243 211 204 203 203 205 211 206 203 201 201 203 205 207 210 211 212 213 211 213 215
192 214 230 226 200 224 233 251 259 269 296 303 285 267 260 257 260 247 245 249 250 244 246 259 247 197 199 199 202 206 211 202 204 204 205 205 205 208 211 213 214 212 210 214
217 234 219 237 242 234 228 227 247 265 307 290 286 267 265 257 261 256 252 248 249 250 244 241 236 227 204 201 198 203 211 208 203 204 203 207 209 210 210 212 213 214 212 214
231 246 237 211 237 231 249 235 247 261 258 263 292 282 276 282 258 237 240 240 244 244 241 245 242 225 216 207 204 205 208 210 210 203 201 200 200 203 209 208 210 213 214 215
218 214 207 230 235 231 252 226 245 250 251 263 263 267 269 319 276 268 268 259 236 236 235 240 240 240 231 213 205 206 207 211 212 209 206 202 204 210 209 207 208 212 216 217
234 255 225 222 231 230 272 73 331 289 227 244 244 221 267 253 258 272 266 258 234 220 229 237 235 236 237 232 209 206 207 212 213 213 210 208 208 206 207 207 207 208 212 215
227 232 240 239 240 224 217 183 232 234 217 247 246 219 241 271 254 259 274 287 293 232 226 224 218 226 231 236 212 205 207 213 214 215 213 212 212 210 210 208 207 204 207 208
214 224 215 217 223 210 209 206 230 263 240 263 204 219 242 242 242 248 264 263 259 276 265 244 230 232 229 233 233 206 207 214 214 216 217 216 214 213 214 212 211 210 210 211
191 233 177 193 209 213 221 215 229 257 272 283 242 269 285 272 273 235 255 279 258 256 258 246 241 241 248 244 239 226 209 214 215 217 218 218 218 216 216 216 214 214 214 214
240 241 202 225 201 214 221 159 183 205 236 234 219 236 250 260 258 262 242 240 240 240 257 260 251 244 248 245 245 241 231 218 216 219 220 220 219 219 220 219 217 216 216 214
228 262 149 51 201 210 217 238 236 230 256 245 299 236 224 243 255 44 6 359 291 222 278 342 317 307 287 284 264 248 237 234 227 223 226 223 222 221 220 220 221 219 218 215
205 8 229 236 257 247 223 229 229 226 250 234 260 272 260 289 295 297 305 337 304 14 322 317 314 309 298 286 276 262 256 246 236 231 229 228 226 223 223 223 225 222 220 218
175 224 164 266 271 222 203 244 252 248 253 252 259 267 205 272 277 289 304 246 258 244 262 257 273 255 256 272 274 262 255 252 253 244 234 233 230 225 225 226 225 224 221 219
164 200 205 219 155 160 208 224 227 235 243 252 247 262 273 278 283 294 307 329 334 301 267 260 277 272 264 259 266 272 267 264 257 245 237 234 230 230 229 228 227 225 222 219
145 207 233 246 259 278 276 247 220 231 248 256 266 267 273 276 311 314 311 307 305 302 295 279 268 270 260 257 256 261 267 265 259 241 238 235 234 231 231 231 230 228 224 221
117 206 138 317 295 277 279 272 262 252 233 245 260 270 268 279 269 281 275 271 273 285 294 296 288 286 281 280 271 270 272 273 263 241 238 237 234 233 230 229 229 228 224 221
161 146 140 268 231 227 271 249 249 255 252 243 251 255 275 284 275 255 247 278 299 297 294 295 299 297 292 290 284 265 273 276 265 252 249 245 238 236 233 230 227 226 224 221
157 154 162 204 57 250 237 304 237 248 255 241 244 256 266 283 280 273 47 19 352 349 348 343 338 328 309 292 289 283 274 265 259 253 250 252 246 238 236 234 230 228 222 219
130 145 148 159 200 279 294 271 255 241 269 346 307 9 359 343 322 164 22 2 343 336 334 329 331 325 322 318 300 287 273 256 253 251 253 257 254 241 233 230 233 227 221 222
251 180 139 115 179 232 65 5 329 339 275 13 16 3 359 349 355 322 341 341 333 332 336 332 324 321 325 329 327 307 264 253 245 255 262 265 260 242 235 232 229 229 228 225
104 319 195 211 252 292 353 313 289 154 288 350 3 349 343 338 311 314 319 320 326 320 321 323 318 317 319 322 323 315 301 263 268 270 272 270 263 247 241 230 223 225 224 224
163 158 178 177 236 287 356 8 251 9 10 349 347 337 327 321 311 309 318 316 316 319 322 321 316 315 319 321 323 318 316 314 303 291 281 273 263 247 239 226 221 220 215 207
182 185 186 175 204 70 46 101 71 34 355 345 334 335 330 323 321 318 317 317 317 317 315 317 314 314 316 321 324 319 319 319 311 303 286 273 262 249 236 218 209 200 201 192
167 19 172 38 23 66 117 92 43 10 355 342 339 330 328 320 322 317 318 321 319 317 315 315 317 315 315 322 323 321 324 324 319 298 285 273 257 244 229 213 206 197 193 194
181 28 116 279 58 38 124 52 6 346 354 340 330 327 323 322 316 315 318 319 315 313 314 315 312 313 314 321 322 326 331 331 323 317 301 277 256 236 225 221 210 205 208 202
8 130 164 204 76 331 292 345 344 357 342 337 330 324 326 321 319 319 315 313 312 315 318 316 313 311 318 321 321 325 336 337 323 320 310 287 268 249 233 223 221 221 224 216
Height
815 819 816 813 817 817 826 827 822 810 803 808 803 800 793 788 785 783 784 781 779 778 774 772 775 777 781 786 791 797 800 800 806 810 813 817 818 822 824 825 828 830 833 837
818 815 801 807 814 817 824 826 822 813 807 810 806 795 790 785 778 775 774 773 770 769 770 768 767 769 771 775 780 788 792 794 796 801 804 808 811 814 818 821 823 824 826 829
809 797 804 809 812 815 816 822 826 820 812 807 805 796 791 775 772 767 762 760 759 760 762 763 761 761 764 765 769 774 780 785 787 790 798 803 808 811 812 813 815 816 818 822
807 796 802 804 808 809 814 807 811 811 819 824 808 806 788 774 763 758 752 752 750 751 753 754 753 752 754 755 759 762 770 776 780 783 787 788 791 795 796 801 805 808 811 813
795 795 800 806 801 801 803 801 806 805 812 820 811 819 771 765 763 751 749 744 742 742 744 744 744 745 744 747 749 754 759 765 771 775 776 779 782 784 790 794 797 801 803 805
791 786 787 792 794 798 798 805 808 811 817 815 803 807 779 773 757 747 743 737 736 734 733 734 734 737 737 740 742 746 750 755 761 766 770 771 772 776 782 785 787 790 793 795
787 789 787 786 794 792 798 807 818 816 815 805 781 800 779 754 746 741 739 737 734 727 725 727 727 728 728 731 732 736 741 745 751 756 759 761 764 768 769 773 776 780 783 786
794 798 784 779 788 790 795 803 808 809 801 797 780 786 760 742 734 731 730 729 729 727 725 724 722 723 723 724 726 729 733 737 742 746 749 752 755 758 760 763 766 769 772 772
785 784 769 775 779 787 790 804 795 806 805 809 786 774 750 738 732 731 730 729 727 723 722 721 720 719 720 719 719 723 726 727 731 735 738 742 745 747 748 752 756 758 761 764
766 777 767 768 775 781 783 792 804 806 801 800 785 779 763 738 732 728 728 727 721 720 719 718 715 715 716 716 717 718 719 720 720 724 728 729 732 737 740 744 746 747 750 753
768 774 773 769 773 778 786 789 789 793 800 788 786 769 735 733 727 727 727 725 720 716 716 717 716 716 716 715 715 713 712 714 714 716 720 721 723 726 730 732 735 736 740 743
767 775 786 778 769 767 772 777 781 793 784 780 777 767 735 729 721 724 725 720 717 718 719 717 715 716 715 712 711 709 710 709 708 708 713 714 714 718 720 722 726 729 730 734
764 780 793 789 780 769 776 775 777 777 777 780 782 760 728 731 729 726 725 719 718 717 717 716 713 712 710 708 707 705 704 704 704 706 706 707 707 709 710 712 716 720 722 725
756 764 769 769 761 763 772 770 771 774 779 769 771 761 729 738 737 731 726 723 723 720 718 717 715 710 706 704 702 700 698 695 696 698 696 697 698 700 701 704 708 711 713 715
758 782 764 758 760 761 759 763 773 770 765 772 755 756 725 732 741 741 738 726 718 713 713 714 710 705 700 697 694 693 691 688 687 689 689 688 687 689 692 697 699 701 704 707
757 778 770 788 770 769 768 762 761 760 763 774 764 761 724 731 736 740 732 723 714 712 709 702 698 697 695 693 690 689 686 684 683 682 680 679 681 682 682 685 689 692 693 696
760 776 783 785 770 769 779 758 756 752 749 750 752 735 717 720 733 728 716 717 716 710 706 703 701 697 692 688 684 681 679 677 676 674 673 673 674 675 675 676 679 680 683 688
764 776 779 788 790 805 748 736 743 745 739 738 734 726 715 718 714 715 740 739 735 730 726 719 710 698 688 681 678 675 671 668 667 664 666 668 668 666 668 670 670 673 675 677
756 767 793 804 810 769 746 745 741 741 734 738 736 750 746 739 722 718 736 740 741 738 733 724 715 704 693 684 675 667 662 660 659 656 659 659 658 659 659 660 664 665 668 670
759 759 785 809 818 810 739 732 731 734 741 761 762 761 759 752 741 737 739 739 734 734 729 722 713 706 698 687 678 666 654 652 648 653 650 649 649 650 650 651 654 656 660 662
794 790 789 801 809 776 736 741 733 765 752 775 776 775 773 773 770 762 757 743 745 740 730 723 716 708 700 693 680 664 655 645 644 642 642 641 640 640 640 641 644 647 652 655
773 785 802 800 805 784 755 741 740 786 784 786 784 783 782 780 772 765 761 754 744 734 729 725 715 704 698 691 681 667 658 653 645 640 636 633 632 631 633 636 636 639 643 647
763 746 762 760 766 767 773 781 793 795 794 790 787 784 782 777 771 766 760 755 746 739 729 723 715 706 698 690 682 668 658 651 641 636 630 627 625 625 626 630 632 635 638 641
737 753 751 748 759 776 779 787 794 797 795 794 792 789 784 777 772 764 758 752 747 741 730 722 713 705 694 687 679 669 659 650 641 633 627 624 623 622 625 624 623 627 631 635
764 758 768 764 761 766 780 788 795 794 795 793 790 789 785 780 771 766 759 753 747 740 732 725 715 706 695 686 676 666 657 649 638 630 626 623 621 621 622 622 620 619 620 623
780 777 767 768 794 798 790 793 796 797 796 795 791 783 783 781 773 767 762 756 748 739 733 725 717 707 697 687 676 667 657 648 640 631 625 622 621 621 620 621 621 620 621 624